Regional Weather Roundup
Issued by NWS

Home | Current Version | Previous Version | Graphics & Text | Print | Product List | Glossary On
Versions: 1 2 3 4 5 6 7 8 9 10 11 12 13 14 15 16 17 18 19 20 21 22 23 24 25 26 27 28 29 30 31 32 33 34 35 36 37 38 39 40 41 42 43 44 45 46 47 48 49 50
050
ASUS43 KDTX 211810
RWRMI
MICHIGAN HOURLY REGIONAL WEATHER ROUNDUP
NATIONAL WEATHER SERVICE DETROIT/PONTIAC MI
200 PM EDT SAT SEP 21 2019

NOTE: "FAIR" INDICATES FEW OR NO CLOUDS BELOW 12,000 FEET WITH NO
SIGNIFICANT WEATHER AND/OR OBSTRUCTION TO VISIBILITY.

MIZ047>049-052>055-059>063-066>070-074>076-081>083-211900-
SOUTHEAST LOWER MICHIGAN

CITY           SKY/WX    TMP DP  RH WIND       PRES   REMARKS
ADRIAN         FAIR      85  67  54 SW10      30.15F
6HR MIN TEMP:  62; 6HR MAX TEMP:  85;

ALMA           PTSUNNY   85  67  56 SW12      30.11S
6HR MIN TEMP:  62; 6HR MAX TEMP:  85;

ANN ARBOR      PTSUNNY   83  71  67 NE7       30.14S
BAD AXE        FAIR      82  66  56 SW8       30.09F
6HR MIN TEMP:  58; 6HR MAX TEMP:  85;

CARO           FAIR      87  70  56 S9        30.09F HX  92
DETROIT CITY   FAIR      83  66  56 SW10      30.13F
6HR MIN TEMP:  66; 6HR MAX TEMP:  86;

DETROIT        TSTM      82  68  62 SW3       30.14F
6HR MIN TEMP:  68; 6HR MAX TEMP:  85; 6HR PCP: TRACE;

FLINT          FAIR      87  67  51 SW14      30.11F HX  90
6HR MIN TEMP:  63; 6HR MAX TEMP:  87;

GROSSE ILE     FAIR      74  70  86 S5        30.14S FOG
6HR MIN TEMP:  66; 6HR MAX TEMP:  78;

HILLSDALE      PTSUNNY   85  66  53 SW7       30.15F
6HR MIN TEMP:  64; 6HR MAX TEMP:  85;

HOWELL         FAIR      85  66  53 S12       30.13F
6HR MIN TEMP:  68; 6HR MAX TEMP:  85;


CITY           SKY/WX    TMP DP  RH WIND       PRES   REMARKS
JACKSON        FAIR      85  68  56 SW12      30.14F
6HR MIN TEMP:  65; 6HR MAX TEMP:  85;

LAMBERTVILLE   FAIR      88  68  52 S7        30.14F HX  91
6HR MIN TEMP:  67; 6HR MAX TEMP:  88;

LANSING        PTSUNNY   83  66  56 W14       30.13S
6HR MIN TEMP:  66; 6HR MAX TEMP:  85;

LAPEER         FAIR      87  65  48 S10       30.12F
6HR MIN TEMP:  60; 6HR MAX TEMP:  87;

MASON          PTSUNNY   85  66  52 SW10      30.13F
6HR MIN TEMP:  65; 6HR MAX TEMP:  85;

MONROE         CLOUDY    80  72  76 CALM      30.13F
6HR MIN TEMP:  64; 6HR MAX TEMP:  86;

PONTIAC        TSTM      73  67  81 S7        30.13F
6HR MIN TEMP:  65; 6HR MAX TEMP:  84; 6HR PCP:  0.01;

PORT HOPE        N/A     85  66  53 SW8       30.08F
6HR MIN TEMP:  66; 6HR MAX TEMP:  85;

PORT HURON     FAIR      86  64  48 S7        30.13F
TRI CITIES     FAIR      85  69  58 SW13      30.09F
6HR MIN TEMP:  66; 6HR MAX TEMP:  86;

MIDLAND        PTSUNNY   87  67  51 SW12G17   30.07F HX  90
6HR MIN TEMP:  60; 6HR MAX TEMP:  88;

TROY           PTSUNNY   85  68  55 W8G21     30.15S
SAGINAW HB     FAIR      86  68  54 SW14G20   30.08F
$$
MIZ043>046-050>051-056>058-064>065-071>073-077>080-211900-
SOUTHWEST LOWER MICHIGAN

CITY           SKY/WX    TMP DP  RH WIND       PRES   REMARKS
BATTLE CREEK   PTSUNNY   84  68  58 SW14      30.14F
6HR MIN TEMP:  67; 6HR MAX TEMP:  86;

BENTON HARBOR  FAIR      80  68  66 SW7       30.11S
6HR MIN TEMP:  70; 6HR MAX TEMP:  84;

BIG RAPIDS     PTSUNNY   80  66  62 SW15G24   30.09S
6HR MIN TEMP:  60; 6HR MAX TEMP:  82;

COLDWATER      PTSUNNY   85  61  44 SW12      30.14F
6HR MIN TEMP:  68; 6HR MAX TEMP:  87;

FREMONT        CLOUDY    78  60  53 SW17G23   30.09S
6HR MIN TEMP:  66; 6HR MAX TEMP:  82;

HOLLAND        PTSUNNY   80  69  69 SW17G28   30.11F
6HR MIN TEMP:  67; 6HR MAX TEMP:  83;

GRAND RAPIDS   PTSUNNY   85  65  51 SW21G30   30.11F
6HR MIN TEMP:  67; 6HR MAX TEMP:  85; 6HR PCP: TRACE;

IONIA          FAIR      85  65  51 W16G24    30.10F
6HR MIN TEMP:  64; 6HR MAX TEMP:  85;

KALAMAZOO      PTSUNNY   84  66  54 S12G24    30.13F
6HR MIN TEMP:  68; 6HR MAX TEMP:  86;

LUDINGTON      PTSUNNY   79  68  68 S16G25    30.04F
6HR MIN TEMP:  65; 6HR MAX TEMP:  80;

MARSHALL       PTSUNNY   84  69  59 SW7       30.13F
6HR MIN TEMP:  69; 6HR MAX TEMP:  86;

MOUNT PLEASANT FAIR      85  67  55 SW15G21   30.09S
6HR MIN TEMP:  62; 6HR MAX TEMP:  85;

MUSKEGON       CLOUDY    77  67  71 S14G25    30.10R
6HR MIN TEMP:  67; 6HR MAX TEMP:  79;

SOUTH HAVEN    FAIR      82  68  62 SW12G25   30.11S
$$
MIZ016>042-211900-
NORTHERN LOWER MICHIGAN

CITY           SKY/WX    TMP DP  RH WIND       PRES   REMARKS
ALPENA         FAIR      85  68  56 S15       30.05F
6HR MIN TEMP:  58; 6HR MAX TEMP:  85;

BEAVER ISLAND  FAIR      83  68  59 S10G16    29.99F
6HR MIN TEMP:  64; 6HR MAX TEMP:  83;

BELLAIRE       PTSUNNY   89  67  49 S9G16     30.00F HX  92
CADILLAC       CLOUDY    83  67  58 S16G23    30.07S
CHARLEVOIX     FAIR      88  68  52 S10G21    30.02F HX  92
6HR MIN TEMP:  64; 6HR MAX TEMP:  88;

FRANKFORT      FAIR      82  66  60 S14G24    30.01F
GAYLORD        FAIR      82  67  60 S15G23    30.05F
6HR MIN TEMP:  57; 6HR MAX TEMP:  82;

HARBOR SPRINGS FAIR      87  67  50 S7        29.99F HX  90
HOUGHTON LAKE  FAIR      81  67  62 S9        30.08F
6HR MIN TEMP:  57; 6HR MAX TEMP:  84;

MANISTEE       CLOUDY    81  70  69 SW10G22   30.02F
OSCODA         FAIR      84  67  57 S8        30.07F
6HR MIN TEMP:  58; 6HR MAX TEMP:  85;

PELLSTON       FAIR      86  68  54 S10       30.01F
6HR MIN TEMP:  56; 6HR MAX TEMP:  86;

ROGERS CITY    FAIR      83  69  62 S8        30.04F
TRAVERSE CITY  FAIR      86  67  52 S16G32    29.99F
6HR MIN TEMP:  65; 6HR MAX TEMP:  88;

$$
MIZ007>008-015-211900-
EASTERN UPPER MICHIGAN

CITY           SKY/WX    TMP DP  RH WIND       PRES   REMARKS
KINROSS        CLOUDY    79  67  66 SE10      30.02F
6HR MIN TEMP:  58; 6HR MAX TEMP:  79;

MACKINAC ISLAN FAIR      73  64  74 E6        30.01F
6HR MIN TEMP:  63; 6HR MAX TEMP:  74;

NEWBERRY       FAIR      81  70  68 S14       29.98F
S. S. MARIE    FAIR      77  66  68 SE10      30.01F
6HR MIN TEMP:  60; 6HR MAX TEMP:  77;

MUNISING         N/A     81  68  64 S18G30    29.90F
6HR MIN TEMP:  62; 6HR MAX TEMP:  81;

$$
MIZ004>006-011>014-085-211900-
CENTRAL UPPER MICHIGAN

CITY           SKY/WX    TMP DP  RH WIND       PRES   REMARKS
MANISTIQUE     FAIR      74  68  81 S9        29.97F
6HR MIN TEMP:  64; 6HR MAX TEMP:  74;

ESCANABA       FAIR      74  67  78 S14G20    29.93F
6HR MIN TEMP:  63; 6HR MAX TEMP:  74;

MENOMINEE      PTSUNNY   78  69  73 SW22G31   29.93F
6HR MIN TEMP:  65; 6HR MAX TEMP:  79;

SAWYER-GWINN   MOSUNNY   82  64  54 S21G32    29.90F
$$
MIZ001>003-009>011-084-211900-
WESTERN UPPER MICHIGAN

CITY           SKY/WX    TMP DP  RH WIND       PRES   REMARKS
IRON MOUNTAIN  CLOUDY    75  67  76 S7        29.90F
6HR MIN TEMP:  62; 6HR MAX TEMP:  75;

HOUGHTON       PTSUNNY   79  67  66 S14G20    29.82F
6HR MIN TEMP:  63; 6HR MAX TEMP:  80;

COPPER HARBOR    N/A     74  66  76 S8G26     29.81F
6HR MIN TEMP:  65; 6HR MAX TEMP:  76;

IRONWOOD       LGT RAIN  70  68  93 SW7G16    29.84R FOG
6HR MIN TEMP:  69; 6HR MAX TEMP:  75; 6HR PCP:  0.33;

$$

ABBREVIATIONS USED IN REMARKS
   TC - TEMPERATURE IN CELSIUS
  WCI - WIND CHILL INDEX
   HX - HEAT INDEX
  VSB - VISIBILITY





USA.gov is the U.S. government's official web portal to all federal, state and local government web resources and services.